Location: Wildcat Hills Observatory
(41.6350°N, 103.6812°W)
Time: 00:44:45
(UTC-07:00)

Resurs 01 Rocket - Pass Details

Date: 23 June 2018
Orbit: 634 x 645 km, 98.1° (Epoch: 18 December)

Event Time Altitude Azimuth Distance (km) Brightness Sun altitude
Rises 20:59:58 0° 171° (S) 2,921 4.6 -5.0°
Reaches altitude 10° 21:02:10 10° 173° (S) 2,019 3.8 -5.3°
Maximum altitude 21:06:33 72° 257° (WSW) 674 1.9 -5.9°
Drops below altitude 10° 21:11:00 10° 343° (NNW) 2,042 5.2 -6.6°
Sets 21:13:13 0° 346° (NNW) 2,958 6.0 -6.9°
